INTELSAT 32E (IS-32E)

Last updated on Tue Sep 22 2026 00:03:14 GMT+0000 (Coordinated Universal Time)

1 41945U 17007B 26264.40925032 -.00000273 00000+0 00000+0 0 9994 2 41945 0.0204 243.0432 0000654 208.6113 12.8108 1.00271160 35191
UTC large
Height (km)
Speed (km/s)
/
Latitude / Longitude
Inclination (degrees)
Orbital Period (minutes)
Azimuth
Elevation
Range (km)
Doppler Factor

Next 0 passes for location: London (51.5072 / 0.1276)

No passes found over London.
INTELSAT 32E (IS-32E)